• In Germany
  • List of Countries
  • For 7 days
  • Water Temperature
  • Satellite Maps
  • Weather Map
  • Weather Widgets
  • user-avatar
    Login

    Hourly Weather Kumielsk

    Today, 24 October, Wednesday

    Time Temperature Precipitation Wind Pressure Humidity
    00:00 +4°C° 0.2 mm 6 mps 729 mmHg 83%
    01:00 +4°C° 0.2 mm 6 mps 729 mmHg 82%
    02:00 +4°C° 0.1 mm 6 mps 729 mmHg 82%
    03:00 +3°C° 0.1 mm 6 mps 729 mmHg 81%
    04:00 +3°C° 0.1 mm 6 mps 729 mmHg 80%
    05:00 +3°C° 0.1 mm 7 mps 729 mmHg 79%
    06:00 +3°C° 0.1 mm 7 mps 729 mmHg 77%
    07:00 +2°C° 0.1 mm 8 mps 730 mmHg 76%
    08:00 +3°C° 0.3 mm 9 mps 730 mmHg 73%
    09:00 +3°C° 0.3 mm 10 mps 731 mmHg 70%
    10:00 +4°C° 0.3 mm 11 mps 731 mmHg 67%
    11:00 +4°C° 0.1 mm 11 mps 732 mmHg 67%
    12:00 +4°C° 0.1 mm 12 mps 732 mmHg 67%
    13:00 +4°C° 0.1 mm 12 mps 733 mmHg 67%
    14:00 +4°C° 0.3 mm 12 mps 734 mmHg 69%
    15:00 +4°C° 0.3 mm 11 mps 734 mmHg 70%
    16:00 +4°C° 0.3 mm 11 mps 735 mmHg 72%
    17:00 +5°C° 0.2 mm 10 mps 736 mmHg 73%
    18:00 +3°C° 0.2 mm 10 mps 737 mmHg 74%
    19:00 +3°C° 0.2 mm 9 mps 738 mmHg 75%
    20:00 +3°C° 0.1 mm 9 mps 738 mmHg 75%
    21:00 +4°C° 0.1 mm 8 mps 739 mmHg 75%
    22:00 +3°C° 0.1 mm 7 mps 740 mmHg 75%
    23:00 +3°C° 0 mm 6 mps 740 mmHg 77%

    Tomorrow, 25 October, Thursday

    Time Temperature Precipitation Wind Pressure Humidity
    00:00 +3°C° 0 mm 6 mps 740 mmHg 78%
    01:00 +2°C° 0 mm 5 mps 740 mmHg 80%
    02:00 +2°C° 0 mm 5 mps 740 mmHg 82%
    03:00 +2°C° 0 mm 5 mps 740 mmHg 83%
    04:00 +1°C° 0 mm 4 mps 740 mmHg 85%
    05:00 +1°C° 0 mm 4 mps 740 mmHg 83%
    06:00 +1°C° 0 mm 4 mps 739 mmHg 82%
    07:00 +1°C° 0 mm 4 mps 739 mmHg 80%
    08:00 +2°C° 0.4 mm 5 mps 738 mmHg 81%
    09:00 +2°C° 0.4 mm 5 mps 737 mmHg 81%
    10:00 +3°C° 0.4 mm 6 mps 736 mmHg 81%
    11:00 +3°C° 0.5 mm 6 mps 735 mmHg 82%
    12:00 +4°C° 0.5 mm 6 mps 735 mmHg 84%
    13:00 +5°C° 0.5 mm 6 mps 734 mmHg 85%
    14:00 +5°C° 0.2 mm 7 mps 733 mmHg 82%
    15:00 +6°C° 0.2 mm 7 mps 733 mmHg 78%
    16:00 +6°C° 0.2 mm 7 mps 733 mmHg 75%
    17:00 +6°C° 0 mm 7 mps 734 mmHg 77%
    18:00 +5°C° 0 mm 6 mps 734 mmHg 78%
    19:00 +5°C° 0 mm 6 mps 735 mmHg 80%
    20:00 +4°C° 0 mm 6 mps 735 mmHg 82%
    21:00 +5°C° 0 mm 5 mps 736 mmHg 84%
    22:00 +5°C° 0 mm 5 mps 736 mmHg 85%
    23:00 +5°C° 0 mm 5 mps 737 mmHg 86%

    Day after tomorrow, 26 October, Friday

    Time Temperature Precipitation Wind Pressure Humidity
    00:00 +5°C° 0 mm 5 mps 737 mmHg 87%
    01:00 +5°C° 0 mm 5 mps 737 mmHg 88%
    02:00 +3°C° 0 mm 5 mps 737 mmHg 89%
    03:00 +3°C° 0 mm 5 mps 737 mmHg 91%
    04:00 +3°C° 0 mm 5 mps 738 mmHg 92%
    05:00 +4°C° 0 mm 4 mps 738 mmHg 92%
    06:00 +4°C° 0 mm 4 mps 738 mmHg 93%
    07:00 +4°C° 0 mm 4 mps 738 mmHg 94%
    08:00 +5°C° 0 mm 5 mps 738 mmHg 88%
    09:00 +6°C° 0 mm 5 mps 739 mmHg 82%
    10:00 +7°C° 0 mm 6 mps 739 mmHg 76%
    11:00 +8°C° 0 mm 6 mps 739 mmHg 72%
    12:00 +8°C° 0 mm 6 mps 738 mmHg 69%
    13:00 +9°C° 0 mm 6 mps 738 mmHg 65%
    14:00 +8°C° 0.1 mm 6 mps 738 mmHg 67%
    15:00 +8°C° 0.1 mm 5 mps 737 mmHg 70%
    16:00 +7°C° 0.1 mm 5 mps 737 mmHg 72%
    17:00 +8°C° 0.3 mm 6 mps 736 mmHg 76%
    18:00 +8°C° 0.3 mm 6 mps 735 mmHg 80%
    19:00 +8°C° 0.3 mm 7 mps 735 mmHg 84%
    20:00 +8°C° 0.2 mm 7 mps 734 mmHg 84%
    21:00 +8°C° 0.2 mm 7 mps 734 mmHg 84%
    22:00 +8°C° 0.2 mm 7 mps 733 mmHg 84%
    23:00 +8°C° 0.1 mm 7 mps 733 mmHg 83%

    27 October, Saturday

    Time Temperature Precipitation Wind Pressure Humidity
    00:00 +7°C° 0.1 mm 8 mps 733 mmHg 82%
    01:00 +6°C° 0.1 mm 8 mps 733 mmHg 81%
    02:00 +6°C° 0.3 mm 8 mps 733 mmHg 79%
    03:00 +5°C° 0.3 mm 8 mps 733 mmHg 77%
    04:00 +5°C° 0.3 mm 8 mps 733 mmHg 75%
    05:00 +4°C° 0.1 mm 8 mps 734 mmHg 76%
    06:00 +4°C° 0.1 mm 8 mps 734 mmHg 77%
    07:00 +4°C° 0.1 mm 7 mps 735 mmHg 78%
    08:00 +5°C° 0 mm 8 mps 736 mmHg 75%
    09:00 +5°C° 0 mm 8 mps 736 mmHg 71%
    10:00 +6°C° 0 mm 8 mps 737 mmHg 67%
    11:00 +5°C° 0 mm 8 mps 738 mmHg 66%
    12:00 +5°C° 0 mm 7 mps 738 mmHg 65%
    13:00 +5°C° 0 mm 7 mps 739 mmHg 64%
    14:00 +5°C° 0.1 mm 6 mps 740 mmHg 67%
    15:00 +5°C° 0.1 mm 6 mps 740 mmHg 69%
    16:00 +6°C° 0.1 mm 5 mps 741 mmHg 71%
    17:00 +5°C° 0 mm 5 mps 742 mmHg 74%
    18:00 +4°C° 0 mm 4 mps 742 mmHg 78%
    19:00 +3°C° 0 mm 4 mps 743 mmHg 81%
    20:00 +3°C° 0 mm 4 mps 744 mmHg 82%
    21:00 +1°C° 0 mm 4 mps 744 mmHg 82%
    22:00 +2°C° 0 mm 3 mps 745 mmHg 83%
    23:00 +1°C° 0 mm 3 mps 745 mmHg 84%

    28 October, Sunday

    Time Temperature Precipitation Wind Pressure Humidity
    00:00 +1°C° 0 mm 3 mps 746 mmHg 86%
    01:00 +2°C° 0 mm 2 mps 746 mmHg 87%
    02:00 +2°C° 0 mm 2 mps 746 mmHg 89%
    03:00 +1°C° 0 mm 2 mps 747 mmHg 90%
    04:00 +2°C° 0 mm 1 mps 747 mmHg 92%
    05:00 +2°C° 0 mm 1 mps 748 mmHg 92%
    06:00 +2°C° 0 mm 1 mps 749 mmHg 92%
    07:00 +2°C° 0 mm 1 mps 749 mmHg 93%
    08:00 +3°C° 0 mm 1 mps 750 mmHg 85%
    09:00 +5°C° 0 mm 1 mps 750 mmHg 78%
    10:00 +5°C° 0 mm 2 mps 750 mmHg 71%
    11:00 +6°C° 0 mm 2 mps 751 mmHg 67%
    12:00 +6°C° 0 mm 2 mps 751 mmHg 63%
    13:00 +7°C° 0 mm 3 mps 751 mmHg 59%
    14:00 +5°C° 0 mm 3 mps 751 mmHg 62%
    15:00 +5°C° 0 mm 3 mps 751 mmHg 64%
    16:00 +4°C° 0 mm 3 mps 751 mmHg 67%
    17:00 +4°C° 0 mm 3 mps 751 mmHg 69%
    18:00 +4°C° 0 mm 4 mps 751 mmHg 70%
    19:00 +4°C° 0 mm 4 mps 751 mmHg 72%
    20:00 +3°C° 0.1 mm 5 mps 751 mmHg 73%
    21:00 +2°C° 0.1 mm 5 mps 751 mmHg 74%
    22:00 +2°C° 0.1 mm 5 mps 751 mmHg 75%
    23:00 +2°C° 0.1 mm 6 mps 751 mmHg 75%

    29 October, Monday

    Time Temperature Precipitation Wind Pressure Humidity
    00:00 +2°C° 0.1 mm 6 mps 751 mmHg 76%
    01:00 +2°C° 0.1 mm 7 mps 750 mmHg 77%
    02:00 +2°C° 0.4 mm 7 mps 750 mmHg 77%
    03:00 +1°C° 0.4 mm 8 mps 749 mmHg 78%
    04:00 +1°C° 0.4 mm 8 mps 749 mmHg 79%
    05:00 +1°C° 1.5 mm 8 mps 748 mmHg 80%
    06:00 +1°C° 1.5 mm 8 mps 748 mmHg 81%
    07:00 0°C° 1.5 mm 9 mps 747 mmHg 82%
    08:00 0°C° 1.6 mm 9 mps 747 mmHg 83%
    09:00 0°C° 1.6 mm 9 mps 746 mmHg 84%
    10:00 0°C° 1.6 mm 9 mps 746 mmHg 85%
    11:00 0°C° 1.7 mm 9 mps 745 mmHg 87%
    12:00 0°C° 1.7 mm 9 mps 744 mmHg 88%
    13:00 0°C° 1.7 mm 9 mps 744 mmHg 89%
    14:00 0°C° 1.2 mm 8 mps 743 mmHg 90%
    15:00 0°C° 1.2 mm 8 mps 743 mmHg 90%
    16:00 0°C° 1.2 mm 8 mps 743 mmHg 91%
    17:00 0°C° 1.7 mm 8 mps 743 mmHg 91%
    18:00 +2°C° 1.7 mm 7 mps 742 mmHg 92%
    19:00 +2°C° 1.7 mm 7 mps 742 mmHg 92%
    20:00 +2°C° 1.1 mm 7 mps 742 mmHg 93%
    21:00 +2°C° 1.1 mm 6 mps 742 mmHg 93%
    22:00 +2°C° 1.1 mm 6 mps 742 mmHg 93%
    23:00 +2°C° 0.2 mm 6 mps 742 mmHg 94%

    30 October, Tuesday

    Time Temperature Precipitation Wind Pressure Humidity
    00:00 +2°C° 0.2 mm 6 mps 742 mmHg 94%
    01:00 +2°C° 0.2 mm 6 mps 742 mmHg 94%
    02:00 +2°C° 0 mm 5 mps 742 mmHg 94%
    03:00 +3°C° 0 mm 5 mps 742 mmHg 95%
    04:00 +3°C° 0 mm 5 mps 742 mmHg 95%
    05:00 +3°C° 0 mm 5 mps 742 mmHg 95%
    06:00 +3°C° 0 mm 5 mps 742 mmHg 95%
    07:00 +4°C° 0 mm 6 mps 742 mmHg 95%
    08:00 +5°C° 0 mm 6 mps 742 mmHg 94%
    09:00 +7°C° 0 mm 6 mps 742 mmHg 93%
    10:00 +8°C° 0 mm 6 mps 742 mmHg 92%
    11:00 +9°C° 0 mm 6 mps 742 mmHg 91%
    12:00 +10°C° 0 mm 6 mps 742 mmHg 89%
    13:00 +11°C° 0 mm 6 mps 742 mmHg 87%
    14:00 +11°C° 0 mm 6 mps 742 mmHg 88%
    15:00 +11°C° 0 mm 6 mps 742 mmHg 89%
    16:00 +11°C° 0 mm 6 mps 742 mmHg 90%
    17:00 +11°C° 0.2 mm 6 mps 742 mmHg 91%
    18:00 +10°C° 0.2 mm 6 mps 742 mmHg 91%
    19:00 +10°C° 0.2 mm 6 mps 742 mmHg 92%
    20:00 +10°C° 1.2 mm 6 mps 742 mmHg 91%
    21:00 +10°C° 1.2 mm 6 mps 741 mmHg 90%
    22:00 +9°C° 1.2 mm 6 mps 741 mmHg 90%
    23:00 +9°C° 0.4 mm 6 mps 741 mmHg 90%
    Show more